Погода в Майском

Россия / Оренбургская область     51°54′30″N   59°24′06″E
темп.,
°C
ветер,
м/с
пор.,
м/с
влажн.,
%
обл.,
%
осадки,
мм/ч
давл.,
гПа
погр.,
м
18 апреля, вс
вс1823:00+11в346739 0.0 101840
02:00+10вюв22674 0.0 101710
05:00+9св11660 0.0 101610
08:00+11ссв23643 0.0 101670
11:00+15св34521 0.0 1014537
14:00+18ссв33425 0.0 10141196
17:00+18св654240 0.0 10141712
20:00+12всв8135396 0.0 1016514
19 апреля, пн
пн1923:00+7всв10146518 0.3 1020835
02:00+2всв10156132 0.1 1024792
05:00+1всв101462100 0.1 1026794
08:00−1всв91366100 0.1 1028807
11:00+1всв10114511 0.1 10281093
14:00+4всв9113723 0.0 10281334
17:00+4всв910345 0.0 10281505
20:00+1всв8114334 0.0 10291082
20 апреля, вт
вт2023:000всв81148100 0.0 10311058
02:00−2всв711485 0.0 10321025
05:00−3всв711470 0.0 1033965
08:00−2всв811390 0.0 1034977
11:00+1в79320 0.0 10341231
14:00+4всв67320 0.0 10331378
17:00+4всв56320 0.0 10321379
20:00+2в34450 0.0 103285
21 апреля, ср
ср2123:000вюв22520 0.0 103317
02:000вюв11500 0.0 103310
05:000вюв11490 0.0 103310
08:00+2з11420 0.0 1034213
11:00+5в22340 0.0 1034689
14:00+9в443426 0.0 10321040
17:00+10ююв22323 0.0 10321351
20:00+8ююв2244100 0.0 103313
22 апреля, чт
чт2223:00+6юв33495 0.0 103435
02:00+4ю33575 0.0 103532
05:00+3ююв225948 0.0 103510
08:00+5ююв235299 0.0 1036152
11:00+10ююв4540100 0.0 1036992
14:00+12ююв5635100 0.0 10351647
17:00+13ююв5635100 0.0 10341803
20:00+11ююв3551100 0.0 103490